Change the Weather History Date:

Wednesday, April 23, 2014

  Actual Average (KJMS) Record (KJMS)
Temperature  
Mean Temperature 44 °F 46 °F  
Max Temperature 48 °F 59 °F 89 °F (1990)
Min Temperature 39 °F 33 °F 13 °F (1902)
Degree Days  
Heating Degree Days 22 19  
Month to date heating degree days 558  
Since 1 July heating degree days 8478  
Cooling Degree Days 0 0  
Month to date cooling degree days 0  
Year to date cooling degree days 0  
Moisture  
Dew Point 39 °F    
Average Humidity 90    
Maximum Humidity 100    
Minimum Humidity 54    
Precipitation  
Precipitation 0.27 in 0.04 in 1.56 in (1976)
Month to date precipitation 0.80  
Year to date precipitation 2.49  
Sea Level Pressure  
Sea Level Pressure 29.80 in    
Wind  
Wind Speed 18 mph (SE)    
Max Wind Speed 31 mph    
Max Gust Speed 48 mph    
Visibility 8 miles    
Events Rain    
T = Trace of Precipitation, MM = Missing Value Source: NWS Daily Summary

Daily Weather History Graph

Daily Weather History Graph

Search for Another Location

Airport or City:

Trip Planner

Search our weather history database for the weather conditions in past years. The results will help you decide how hot, cold, wet, or windy it might be!

Date:

Astronomy

Apr. 23, 2014 Rise Set
Actual Time 6:29 AM CDT 8:31 PM CDT
Civil Twilight 5:57 AM CDT 9:04 PM CDT
Nautical Twilight 5:16 AM CDT 9:45 PM CDT
Astronomical Twilight 4:31 AM CDT 10:30 PM CDT
Moon 3:26 AM CDT (4/23) 2:19 PM CDT (4/23)
Length of Visible Light 15h 07m
Length of Day
14h 01m
Waning Crescent, 34% of the Moon is Illuminated
Apr 23
Waning Crescent
Apr 29
New
May 6
First Quarter
May 14
Full
May 21
Last Quarter

Hourly Weather History & Observations

Time (CDT) Temp. Windchill Dew Point Humidity Pressure Visibility Wind Dir Wind Speed Gust Speed Precip Events Conditions
12:15 AM 46.4 °F 40.1 °F 32.0 °F 57% 29.91 in 10.0 mi SE 15.0 mph 20.7 mph N/A   Mostly Cloudy
12:35 AM 46.4 °F 40.1 °F 32.0 °F 57% 29.91 in 10.0 mi SE 15.0 mph 21.9 mph N/A   Mostly Cloudy
12:55 AM 46.4 °F 40.4 °F 32.0 °F 57% 29.91 in 10.0 mi SE 13.8 mph 20.7 mph N/A   Mostly Cloudy
1:15 AM 46.4 °F 40.4 °F 32.0 °F 57% 29.91 in 10.0 mi SE 13.8 mph 19.6 mph N/A   Overcast
1:35 AM 46.4 °F 40.4 °F 32.0 °F 57% 29.90 in 10.0 mi SE 13.8 mph 20.7 mph N/A   Overcast
1:55 AM 46.4 °F 40.4 °F 32.0 °F 57% 29.90 in 10.0 mi SE 13.8 mph 20.7 mph N/A   Overcast
2:15 AM 46.4 °F 39.8 °F 32.0 °F 57% 29.89 in 10.0 mi SE 16.1 mph 21.9 mph N/A   Overcast
2:35 AM 48.2 °F - 32.0 °F 54% 29.89 in 10.0 mi SE 17.3 mph 24.2 mph N/A   Overcast
2:55 AM 48.2 °F - 32.0 °F 54% 29.89 in 10.0 mi SE 16.1 mph 23.0 mph N/A   Overcast
3:15 AM 46.4 °F 39.2 °F 32.0 °F 57% 29.88 in 10.0 mi SE 18.4 mph 24.2 mph N/A   Scattered Clouds
3:35 AM 46.4 °F 39.8 °F 32.0 °F 57% 29.88 in 10.0 mi SE 16.1 mph 23.0 mph N/A   Scattered Clouds
3:55 AM 46.4 °F 40.1 °F 32.0 °F 57% 29.87 in 10.0 mi SE 15.0 mph 27.6 mph N/A   Overcast
4:15 AM 46.4 °F 39.8 °F 32.0 °F 57% 29.87 in 10.0 mi SE 16.1 mph 24.2 mph N/A   Mostly Cloudy
4:35 AM 46.4 °F 39.5 °F 32.0 °F 57% 29.87 in 10.0 mi SE 17.3 mph 24.2 mph N/A   Overcast
4:55 AM 44.6 °F 37.4 °F 35.6 °F 71% 29.86 in 9.0 mi SSE 16.1 mph 27.6 mph N/A Rain Light Rain
5:15 AM 42.8 °F 35.1 °F 41.0 °F 93% 29.86 in 5.0 mi SE 16.1 mph 25.3 mph N/A Rain Light Rain
5:35 AM 41.0 °F 32.8 °F 41.0 °F 100% 29.86 in 3.0 mi SE 16.1 mph 25.3 mph 0.03 in   Overcast
5:55 AM 41.0 °F 32.5 °F 41.0 °F 100% 29.85 in 4.0 mi SE 17.3 mph 24.2 mph 0.05 in   Overcast
6:15 AM 41.0 °F 32.5 °F 41.0 °F 100% 29.86 in 3.0 mi SSE 17.3 mph 24.2 mph 0.01 in   Overcast
6:35 AM 41.0 °F 32.2 °F 41.0 °F 100% 29.84 in 2.0 mi SE 18.4 mph 27.6 mph 0.05 in   Overcast
6:55 AM 41.0 °F 31.9 °F 41.0 °F 100% 29.83 in 5.0 mi SE 19.6 mph 24.2 mph 0.06 in Rain Light Rain
7:15 AM 41.0 °F 32.5 °F 41.0 °F 100% 29.84 in 6.0 mi SSE 17.3 mph 24.2 mph N/A   Overcast
7:35 AM 41.0 °F 31.9 °F 41.0 °F 100% 29.84 in 7.0 mi SE 19.6 mph 26.5 mph N/A   Overcast
7:55 AM 41.0 °F 32.2 °F 41.0 °F 100% 29.84 in 5.0 mi SSE 18.4 mph 25.3 mph N/A   Overcast
8:15 AM 42.8 °F 33.5 °F 42.8 °F 100% 29.83 in 5.0 mi SE 23.0 mph 29.9 mph N/A   Mostly Cloudy
8:35 AM 42.8 °F 33.3 °F 42.8 °F 100% 29.81 in 9.0 mi SE 24.2 mph 33.4 mph N/A   Mostly Cloudy
8:55 AM 44.6 °F 36.1 °F 44.6 °F 100% 29.80 in 10.0 mi SE 21.9 mph 36.8 mph 0.01 in   Overcast
9:15 AM 42.8 °F 34.5 °F 42.8 °F 100% 29.80 in 10.0 mi SSE 18.4 mph 31.1 mph N/A   Overcast
9:35 AM 44.6 °F 35.5 °F 44.6 °F 100% 29.79 in 10.0 mi SE 25.3 mph 33.4 mph N/A   Overcast
9:55 AM 44.6 °F 36.9 °F 44.6 °F 100% 29.80 in 9.0 mi SE 18.4 mph 33.4 mph N/A   Overcast
10:15 AM 44.6 °F 36.1 °F 44.6 °F 100% 29.78 in 10.0 mi SE 21.9 mph 27.6 mph N/A   Overcast
10:35 AM 44.6 °F 36.1 °F 44.6 °F 100% 29.77 in 10.0 mi SE 21.9 mph 36.8 mph N/A   Mostly Cloudy
10:55 AM 44.6 °F 35.7 °F 44.6 °F 100% 29.77 in 8.0 mi SE 24.2 mph 32.2 mph N/A   Scattered Clouds
11:15 AM 44.6 °F 34.6 °F 44.6 °F 100% 29.76 in 10.0 mi SE 31.1 mph 39.1 mph N/A   Mostly Cloudy
11:35 AM 44.6 °F 34.6 °F 44.6 °F 100% 29.76 in 10.0 mi SE 31.1 mph 40.3 mph N/A   Overcast
12:15 PM 46.4 °F 37.4 °F 42.8 °F 87% 29.76 in 10.0 mi SE 28.8 mph 39.1 mph N/A   Mostly Cloudy
12:35 PM 44.6 °F 35.5 °F 42.8 °F 93% 29.77 in 10.0 mi SE 25.3 mph 36.8 mph N/A   Overcast
12:55 PM 44.6 °F 35.3 °F 44.6 °F 100% 29.77 in 10.0 mi SE 26.5 mph 35.7 mph N/A   Overcast
1:15 PM 44.6 °F 34.9 °F 42.8 °F 93% 29.77 in 10.0 mi SE 28.8 mph 48.3 mph N/A   Overcast
1:35 PM 44.6 °F 35.7 °F 42.8 °F 93% 29.77 in 10.0 mi SE 24.2 mph 34.5 mph N/A   Overcast
1:55 PM 42.8 °F 33.8 °F 42.8 °F 100% 29.77 in 10.0 mi SE 21.9 mph 31.1 mph N/A   Overcast
2:15 PM 41.0 °F 32.5 °F 41.0 °F 100% 29.76 in 5.0 mi SE 17.3 mph 35.7 mph 0.01 in   Overcast
2:35 PM 41.0 °F 31.9 °F 41.0 °F 100% 29.77 in 10.0 mi SE 19.6 mph 26.5 mph 0.01 in   Overcast
2:55 PM 41.0 °F 31.9 °F 41.0 °F 100% 29.77 in 5.0 mi SE 19.6 mph 27.6 mph 0.01 in   Mostly Cloudy
3:15 PM 41.0 °F 31.6 °F 41.0 °F 100% 29.76 in 3.0 mi SE 20.7 mph 27.6 mph N/A   Mostly Cloudy
3:35 PM 41.0 °F 31.1 °F 41.0 °F 100% 29.76 in 5.0 mi SE 23.0 mph 32.2 mph 0.02 in   Overcast
3:55 PM 41.0 °F 31.9 °F 41.0 °F 100% 29.77 in 10.0 mi SE 19.6 mph 32.2 mph 0.03 in   Overcast
4:15 PM 41.0 °F 32.2 °F 41.0 °F 100% 29.76 in 10.0 mi SE 18.4 mph 28.8 mph N/A   Overcast
4:35 PM 41.0 °F 32.2 °F 41.0 °F 100% 29.75 in 10.0 mi SE 18.4 mph 29.9 mph N/A   Overcast
4:55 PM 41.0 °F 31.6 °F 41.0 °F 100% 29.75 in 10.0 mi SE 20.7 mph 26.5 mph 0.01 in   Overcast
5:15 PM 41.0 °F 31.6 °F 41.0 °F 100% 29.74 in 5.0 mi SE 20.7 mph 27.6 mph N/A   Mostly Cloudy
5:35 PM 39.2 °F 29.8 °F 39.2 °F 100% 29.75 in 3.0 mi SE 18.4 mph 27.6 mph 0.01 in   Partly Cloudy
5:55 PM 39.2 °F 29.3 °F 39.2 °F 100% 29.75 in 2.5 mi SE 20.7 mph 29.9 mph 0.03 in   Partly Cloudy
6:15 PM 39.2 °F 29.0 °F 39.2 °F 100% 29.73 in 5.0 mi SE 21.9 mph 31.1 mph 0.01 in   Partly Cloudy
6:35 PM 39.2 °F 29.0 °F 39.2 °F 100% 29.72 in 3.0 mi SE 21.9 mph 31.1 mph 0.03 in   Partly Cloudy
6:55 PM 39.2 °F 29.8 °F 39.2 °F 100% 29.72 in 8.0 mi SE 18.4 mph 33.4 mph 0.05 in   Scattered Clouds
7:15 PM 39.2 °F 29.8 °F 39.2 °F 100% 29.73 in 7.0 mi SE 18.4 mph 27.6 mph N/A   Scattered Clouds
7:35 PM 39.2 °F 30.2 °F 39.2 °F 100% 29.75 in 10.0 mi SE 17.3 mph 26.5 mph N/A   Mostly Cloudy
7:55 PM 39.2 °F 30.5 °F 39.2 °F 100% 29.74 in 10.0 mi SE 16.1 mph 24.2 mph N/A   Overcast
8:15 PM 39.2 °F 30.2 °F 39.2 °F 100% 29.75 in 3.0 mi SE 17.3 mph 27.6 mph N/A   Overcast
8:35 PM 39.2 °F 29.8 °F 39.2 °F 100% 29.75 in 3.0 mi SE 18.4 mph 28.8 mph 0.01 in   Overcast
8:55 PM 39.2 °F 29.8 °F 39.2 °F 100% 29.75 in 2.5 mi SE 18.4 mph 27.6 mph 0.02 in   Overcast
9:15 PM 39.2 °F 30.2 °F 39.2 °F 100% 29.75 in 3.0 mi SE 17.3 mph 27.6 mph N/A   Overcast
9:35 PM 39.2 °F 29.6 °F 39.2 °F 100% 29.76 in 8.0 mi SE 19.6 mph 23.0 mph N/A   Overcast
9:55 PM 39.2 °F 30.2 °F 39.2 °F 100% 29.76 in 5.0 mi SE 17.3 mph 27.6 mph N/A   Overcast
10:15 PM 39.2 °F 30.8 °F 39.2 °F 100% 29.76 in 10.0 mi SE 15.0 mph 24.2 mph N/A   Overcast
10:35 PM 39.2 °F 30.2 °F 39.2 °F 100% 29.76 in 10.0 mi SE 17.3 mph 24.2 mph N/A   Overcast
10:55 PM 39.2 °F 29.8 °F 39.2 °F 100% 29.76 in 10.0 mi SE 18.4 mph 25.3 mph N/A   Overcast
11:15 PM 39.2 °F 30.2 °F 39.2 °F 100% 29.75 in 10.0 mi SE 17.3 mph 24.2 mph N/A   Overcast
11:35 PM 39.2 °F 30.5 °F 39.2 °F 100% 29.77 in 10.0 mi SSE 16.1 mph 23.0 mph N/A   Overcast
11:55 PM 39.2 °F 30.2 °F 39.2 °F 100% 29.78 in 10.0 mi SSE 17.3 mph 21.9 mph N/A   Overcast